TimeMDT,TemperatureF,Dew PointF,Humidity,Sea Level PressureIn,VisibilityMPH,Wind Direction,Wind SpeedMPH,Gust SpeedMPH,PrecipitationIn,Events,Conditions,WindDirDegrees,DateUTC
12:56 AM,54.0,41.0,62,30.10,-9999.0,Calm,Calm,-,N/A,,Unknown,0,2013-07-03 06:56:00
1:56 AM,51.1,41.0,68,30.09,-9999.0,Calm,Calm,-,N/A,,Unknown,0,2013-07-03 07:56:00
2:56 AM,50.0,41.0,71,30.08,-9999.0,NW,3.5,-,N/A,,Unknown,320,2013-07-03 08:56:00
3:56 AM,48.9,41.0,74,30.05,-9999.0,Calm,Calm,-,N/A,,Unknown,0,2013-07-03 09:56:00
4:56 AM,48.0,41.0,77,30.06,-9999.0,Calm,Calm,-,N/A,,Unknown,0,2013-07-03 10:56:00
5:56 AM,48.9,43.0,80,30.07,-9999.0,Calm,Calm,-,N/A,,Unknown,0,2013-07-03 11:56:00
6:56 AM,50.0,45.0,83,30.08,-9999.0,Calm,Calm,-,N/A,,Unknown,0,2013-07-03 12:56:00
7:56 AM,59.0,48.9,69,30.07,-9999.0,Calm,Calm,-,N/A,,Unknown,0,2013-07-03 13:56:00
8:56 AM,59.0,51.1,75,30.08,-9999.0,ESE,3.5,-,N/A,,Unknown,110,2013-07-03 14:56:00
9:56 AM,61.0,51.1,70,30.08,-9999.0,ESE,3.5,-,N/A,,Unknown,120,2013-07-03 15:56:00
10:56 AM,75.0,37.0,25,30.01,-9999.0,North,8.1,-,N/A,,Unknown,360,2013-07-03 16:56:00
11:56 AM,75.9,35.1,23,30.04,-9999.0,Variable,6.9,-,N/A,,Unknown,0,2013-07-03 17:56:00
12:56 PM,78.1,37.0,23,30.02,-9999.0,Variable,6.9,-,N/A,,Unknown,0,2013-07-03 18:56:00
1:56 PM,79.0,35.1,20,30.02,-9999.0,Variable,5.8,-,N/A,,Unknown,0,2013-07-03 19:56:00
2:56 PM,80.1,36.0,20,30.01,-9999.0,Variable,5.8,-,N/A,,Unknown,0,2013-07-03 20:56:00
3:56 PM,81.0,37.0,21,30.00,-9999.0,Variable,4.6,-,N/A,,Unknown,0,2013-07-03 21:56:00
4:56 PM,81.0,36.0,20,29.99,-9999.0,North,8.1,-,N/A,,Unknown,360,2013-07-03 22:56:00
5:56 PM,80.1,34.0,19,29.97,-9999.0,Variable,5.8,-,N/A,,Unknown,0,2013-07-03 23:56:00
6:56 PM,79.0,35.1,20,29.96,-9999.0,Variable,5.8,-,N/A,,Unknown,0,2013-07-04 00:56:00
7:56 PM,73.9,39.9,29,29.94,-9999.0,Calm,Calm,-,N/A,,Unknown,0,2013-07-04 01:56:00
8:56 PM,68.0,44.1,42,29.97,-9999.0,Calm,Calm,-,N/A,,Unknown,0,2013-07-04 02:56:00
9:56 PM,70.0,41.0,35,29.97,-9999.0,Variable,3.5,-,N/A,,Unknown,0,2013-07-04 03:56:00
10:56 PM,68.0,43.0,40,29.93,-9999.0,Variable,3.5,-,N/A,,Unknown,0,2013-07-04 04:56:00
11:56 PM,64.9,45.0,48,29.93,-9999.0,Calm,Calm,-,N/A,,Unknown,0,2013-07-04 05:56:00